This demonstration page uses our WeatherBlox Daily Observations layout. Learn more.

Left ArrowRight Arrow

38.80484, -77.04692

Hourly Observations for September 30, 2022

Temp ( °F °C ) Dew Point ( °F °C ) Humidity (%) Winds ( mph kmh ) Pressure ( in mb ) Visibility ( mi km ) Precip ( " mm )
12:52 am 00:52 Cloudy 58 14.4 46 7.8 65 65 NNE 10 17 30.29 1026 10 16 0.00 0.00
1:52 am 01:52 Cloudy 58 14.4 45 7.2 62 62 NE 13 20 30.28 1026 10 16 0.00 0.00
2:52 am 02:52 Cloudy 57 13.9 46 7.8 67 67 NNE 13 20 30.27 1025 10 16 0.00 0.00
3:52 am 03:52 Cloudy 57 13.9 45 7.2 64 64 NNE 9 15 30.26 1025 10 16 0.00 0.00
4:52 am 04:52 Cloudy 56 13.3 45 7.2 66 66 NNE 10 17 30.26 1025 10 16 0.00 0.00
5:52 am 05:52 Cloudy 56 13.3 45 7.2 66 66 N 15 24 30.27 1025 10 16 0.00 0.00
6:52 am 06:52 Cloudy 56 13.3 45 7.2 66 66 NNE 13 20 30.26 1025 10 16 0.00 0.00
7:52 am 07:52 Cloudy 56 13.3 45 7.2 66 66 NNE 14 22 30.26 1025 10 16 0.00 0.00
8:52 am 08:52 Cloudy 57 13.9 46 7.8 67 67 NNE 14 22 30.28 1025 10 16 0.00 0.00
9:52 am 09:52 Sunny 59 15 48 8.9 67 67 NE 15 24 30.27 1025 10 16 0.00 0.00
10:52 am 10:52 Cloudy 60 15.6 49 9.4 67 67 NNE 20 31 30.24 1024 10 16 0.00 0.00
11:52 am 11:52 Cloudy 61 16.1 50 10 67 67 NNE 15 24 30.23 1024 10 16 0.00 0.00
12:52 pm 12:52 Cloudy 62 16.7 51 10.6 67 67 NNE 15 24 30.21 1023 10 16 0.00 0.00
1:52 pm 13:52 Cloudy 62 16.7 52 11.1 70 70 NE 15 24 30.19 1022 10 16 0.00 0.00
2:52 pm 14:52 Cloudy 62 16.7 52 11.1 70 70 NE 20 31 30.15 1021 10 16 0.00 0.00
2:59 pm 14:59 Cloudy 62 16.7 52 11.1 70 70 NE 16 26 30.16 1021 10 16 0.00 0.00
3:16 pm 15:16 Cloudy 62 16.7 52 11.1 70 70 NE 16 26 30.15 1021 10 16 0.00 0.00
3:52 pm 15:52 Cloudy 62 16.7 53 11.7 72 72 NNE 18 30 30.14 1021 10 16 0.01 0.13
4:52 pm 16:52 Cloudy 61 16.1 53 11.7 75 75 NNE 16 26 30.11 1020 10 16 0.01 0.13
5:52 pm 17:52 Cloudy with Light Rain 60 15.6 53 11.7 78 78 NNE 20 31 30.09 1019 10 16 0.01 0.25
6:52 pm 18:52 Cloudy with Light Rain 59 15 53 11.7 81 81 NE 18 30 30.05 1018 10 16 0.01 0.13
7:52 pm 19:52 Cloudy with Light Rain 58 14.4 52 11.1 81 81 NNE 15 24 30.05 1018 10 16 0.01 0.13
8:52 pm 20:52 Cloudy with Light Rain 58 14.4 53 11.7 84 84 NNE 15 24 30.04 1017 10 16 0.02 0.51
9:52 pm 21:52 Cloudy with Rain 57 13.9 53 11.7 87 87 NNE 18 30 30.03 1017 7 11 0.03 0.76
10:36 pm 22:36 Cloudy with Rain 56 13.3 53 11.7 90 90 NE 20 31 30.00 1016 5 8 0.06 1.52
10:44 pm 22:44 Cloudy with Rain 56 13.3 53 11.7 90 90 NNE 20 31 29.98 1015 6 10 0.08 2.03
10:52 pm 22:52 Cloudy with Light Rain 56 13.3 53 11.7 90 90 NNE 16 26 30.00 1016 5 8 0.10 2.54
11:00 pm 23:00 Cloudy with Light Rain 56 13.3 53 11.7 90 90 NNE 17 28 29.99 1016 10 16 0.01 0.13
11:44 pm 23:44 Cloudy with Rain 56 13.3 53 11.7 90 90 N 14 22 30.01 1016 5 8 0.05 1.27
11:52 pm 23:52 Cloudy with Rain 57 13.9 53 11.7 87 87 NNE 15 24 30.01 1016 5 8 0.06 1.52

Powered by AerisWeather